Location: ??????????
(54.8537°N, 38.8755°E)
Time: 04:16:22
(UTC+00:00)

Vanguard 2 Rocket - Pass Details

Date: 20 September 2024
Orbit: 553 x 3298 km, 32.9° (Epoch: 14 October)

Event Time Altitude Azimuth Distance (km) Brightness Sun altitude
Exits shadow 22:56:28 22° 152° (SSE) 3,712 9.7 -30.9°
Drops below altitude 10° 23:04:20 10° 122° (ESE) 5,301 10.8 -30.4°
Sets 23:10:30 0° 111° (ESE) 6,744 11.5 -29.9°
